Theta_e
307 306 305 305 305 305 305 305 305 304 304 303 303 302 302 302 302 302 302 301 301 301 302 302 303 304 304 305 305 305 304 304 303 302 302 301 301 300 300 300 299 299 299 299 299 299 299 299 299 299 298 299 299 298 299 299 299 299 299 299 299 299 299 299 299 299 300 300 300 300 300 300 300 299 299 299 299 299 299 299 299 299 299 299 299 299
306 305 305 304 304 304 304 303 303 303 302 302 301 301 300 300 300 300 300 299 299 299 300 300 300 300 301 301 301 301 301 301 300 300 299 299 299 299 299 299 299 298 298 298 298 298 298 298 298 298 298 298 298 299 299 299 299 299 299 299 299 299 299 299 299 299 299 299 299 299 299 299 299 299 299 299 299 299 299 299 299 299 299 299 299 299
305 304 304 304 303 303 303 302 302 301 301 300 300 300 299 299 299 299 299 299 299 298 298 298 298 299 299 299 299 299 299 299 298 298 298 298 298 298 298 298 298 298 298 298 298 298 298 298 298 298 298 298 298 298 298 298 299 299 299 299 299 299 299 299 299 299 299 299 299 299 299 299 299 299 299 298 298 298 298 298 298 298 298 298 298 298
304 303 302 302 302 301 301 300 300 299 299 299 299 298 298 298 298 298 298 298 298 298 298 298 298 298 298 298 298 298 298 298 298 298 298 298 298 298 298 298 298 298 298 298 298 298 298 298 298 298 298 298 298 298 298 298 299 299 299 299 299 299 299 299 299 299 299 298 298 298 298 298 298 298 298 298 298 297 297 297 297 297 297 297 297 297
302 301 301 300 300 299 299 298 297 297 297 297 297 296 296 296 296 296 296 296 296 297 297 297 297 297 297 297 297 297 297 297 297 297 298 298 298 298 298 298 298 298 298 298 298 298 298 298 298 298 298 298 298 298 298 298 298 298 298 298 298 298 298 298 298 298 298 297 297 297 297 297 297 297 297 297 297 297 297 296 296 296 296 296 296 296
300 299 299 298 298 297 296 296 295 295 295 295 295 295 295 295 295 295 295 295 296 296 296 296 296 296 296 296 297 297 297 297 297 297 298 298 298 298 298 298 298 298 298 298 298 298 298 298 298 298 298 297 297 297 297 297 297 297 297 297 297 297 297 297 296 296 296 296 296 296 296 296 296 296 296 296 296 296 296 296 295 295 295 295 295 295
298 298 297 296 296 295 295 294 294 294 294 294 295 295 295 295 295 295 295 296 296 296 296 297 297 297 297 297 297 297 297 297 297 297 297 298 298 298 298 298 297 297 297 297 297 297 297 297 297 297 296 296 296 296 296 296 296 296 296 296 295 295 295 295 295 295 295 295 295 295 295 295 295 295 295 295 295 295 295 295 295 295 295 295 295 294
296 295 295 295 294 294 294 294 294 294 294 294 295 295 295 295 296 296 296 296 296 297 297 297 297 297 297 297 297 297 297 297 297 297 297 297 297 297 297 297 297 296 296 296 296 296 296 296 295 295 295 295 295 295 295 295 295 295 295 295 295 295 295 295 294 294 294 294 294 294 294 294 294 294 294 294 294 294 294 294 294 294 294 294 294 294
295 294 293 293 294 294 294 294 294 294 294 295 295 295 296 296 296 296 296 296 296 296 296 296 296 296 296 296 296 296 296 296 296 296 296 296 296 296 296 295 295 295 295 295 295 295 294 294 294 294 294 294 294 294 294 294 294 294 294 294 294 294 294 294 294 294 294 294 294 294 294 294 294 294 294 294 294 294 294 294 294 294 294 294 294 294
294 293 293 293 293 294 294 294 294 294 294 295 295 295 295 295 295 295 295 295 295 295 295 295 295 295 295 295 295 295 294 294 294 294 294 294 294 294 294 294 294 294 294 294 294 294 294 294 294 294 294 294 294 294 294 294 294 294 294 294 294 294 294 294 293 293 293 293 293 293 293 293 293 293 293 293 293 293 293 293 293 293 293 293 293 293
293 293 293 293 293 293 293 294 294 294 294 295 295 295 295 295 294 294 294 294 294 294 294 294 294 293 293 293 293 293 293 293 293 293 293 293 293 293 293 293 293 293 293 293 293 293 293 293 294 294 294 294 294 294 294 294 294 293 293 293 293 293 293 293 293 293 293 293 293 293 293 293 293 293 293 293 293 293 293 293 293 293 293 293 293 293
293 293 293 293 293 293 293 293 294 294 294 294 294 293 293 293 293 293 293 294 293 293 293 293 293 293 293 293 293 293 293 293 293 293 293 293 293 293 293 293 293 293 294 294 294 294 294 294 294 294 294 294 294 293 293 293 293 293 293 293 293 293 293 293 293 292 292 292 292 292 292 292 292 292 292 293 293 293 293 293 293 293 293 293 292 292
294 293 293 293 293 293 293 293 293 293 293 293 293 293 293 292 292 292 293 293 293 293 293 293 292 293 293 293 293 293 293 293 293 294 294 294 294 294 294 294 294 294 294 294 294 294 294 294 294 294 294 294 293 293 293 293 293 293 293 292 292 292 292 292 292 292 292 292 292 292 292 292 292 292 292 292 292 292 292 292 292 292 292 292 292 292
294 293 293 293 293 293 293 293 293 293 293 292 292 292 292 292 292 292 292 292 292 292 292 292 292 292 292 293 293 293 293 294 294 294 294 294 294 294 294 294 294 294 294 294 294 294 294 294 294 294 294 293 293 293 293 293 292 292 292 292 292 292 292 291 291 291 291 291 291 291 291 291 291 291 291 291 292 291 291 291 291 291 291 291 291 291
293 293 293 293 293 292 292 292 292 292 292 292 292 292 292 292 292 291 291 291 291 292 292 292 292 292 292 293 293 293 293 294 294 294 294 294 294 294 294 294 294 294 294 294 294 294 294 294 294 293 293 293 293 293 292 292 292 292 292 291 291 291 291 291 291 291 290 291 290 291 291 291 291 291 291 291 291 291 291 291 291 291 291 291 291 291
292 292 292 292 292 292 292 292 292 292 292 292 291 291 291 291 291 291 291 291 291 291 291 291 291 291 291 292 293 293 293 293 293 293 293 293 293 293 293 293 293 293 294 293 293 293 293 293 293 293 293 292 292 292 292 292 292 291 291 291 291 291 291 290 290 290 290 290 290 290 290 290 290 290 290 290 290 290 290 290 290 290 290 290 290 290
292 292 292 291 291 291 291 291 291 291 291 291 291 291 291 291 291 291 291 291 291 291 291 291 291 291 290 291 292 293 293 293 293 293 293 293 293 293 293 293 293 293 293 293 293 293 293 292 292 292 292 292 292 292 292 292 292 291 291 291 291 291 290 290 290 290 290 290 290 290 290 290 290 290 290 290 290 290 290 290 290 290 290 290 290 290
292 291 291 291 291 291 291 291 291 291 291 291 291 291 291 291 291 291 291 291 291 291 291 291 291 291 291 290 291 292 292 292 292 292 292 292 292 293 293 293 293 293 293 293 293 292 292 292 292 292 292 292 291 291 291 291 291 291 291 291 291 291 291 290 290 290 290 290 290 290 290 290 289 289 289 289 289 289 290 290 290 290 290 290 290 290
292 292 291 291 291 291 291 291 291 292 292 292 291 291 291 291 291 291 291 291 291 291 291 291 291 291 291 290 291 291 291 291 291 292 292 292 293 292 293 293 293 293 293 292 292 291 291 291 291 291 291 291 291 291 291 291 291 291 291 291 291 291 291 291 290 290 290 290 290 290 290 289 289 289 289 289 289 289 289 289 289 290 290 290 290 290
292 292 292 291 291 291 291 292 292 292 292 291 291 291 290 290 290 290 290 290 290 290 290 290 290 291 291 291 291 291 291 291 291 292 292 292 292 292 292 292 292 292 291 291 291 291 291 291 291 291 291 291 290 290 290 290 290 290 290 290 290 290 290 290 290 290 290 290 290 290 289 289 289 289 289 289 289 289 289 289 289 289 289 289 289 289
292 292 292 292 292 292 291 292 292 292 291 291 290 290 290 290 290 290 290 290 290 290 290 290 290 290 291 291 290 290 290 290 291 291 291 292 292 292 292 292 291 291 290 290 290 290 290 290 290 290 290 290 290 290 290 290 290 290 290 290 290 290 290 290 290 290 290 290 290 289 289 289 289 289 289 289 289 288 288 289 289 289 289 289 289 289
292 292 292 292 291 291 291 291 291 291 290 290 290 290 290 290 289 289 289 289 289 289 289 289 289 290 290 289 289 290 290 290 290 291 291 291 292 292 292 291 290 290 290 290 290 290 290 290 290 290 290 290 290 290 290 290 290 290 290 290 290 291 291 291 291 290 290 290 290 289 289 289 289 289 289 289 289 289 288 288 288 288 288 288 288 288
291 291 291 291 290 290 290 290 290 289 289 289 289 289 289 289 289 289 289 289 289 289 288 288 288 289 289 289 289 289 289 290 290 290 291 291 291 291 291 290 290 289 289 290 290 290 290 290 290 290 290 290 290 290 290 290 290 290 290 290 290 291 291 291 291 291 290 290 290 290 290 289 289 289 289 289 289 289 289 289 288 288 288 288 288 288
290 290 290 290 289 289 289 289 289 288 288 288 288 288 289 288 288 288 288 288 288 288 288 288 288 288 288 289 289 289 289 289 290 290 290 290 290 290 290 289 289 289 289 289 289 289 289 289 289 290 290 290 290 290 290 290 290 290 290 290 290 290 290 290 290 290 290 290 290 290 290 290 289 289 289 289 289 289 289 289 289 289 289 288 288 288
290 290 290 289 289 289 288 288 288 288 288 288 288 288 288 288 288 288 288 288 287 287 287 288 288 288 288 288 288 288 289 289 289 290 290 290 290 289 289 289 289 289 289 289 289 289 289 289 289 289 289 289 289 289 290 290 290 290 290 290 290 290 290 290 290 290 290 290 290 290 290 290 290 290 289 290 289 289 289 289 289 289 289 289 289 289
290 290 289 289 289 289 288 288 288 288 288 288 287 287 287 287 287 287 287 287 287 287 287 287 287 287 288 288 288 288 288 289 289 289 289 289 289 289 289 289 289 289 289 289 289 289 289 289 289 289 289 289 289 289 290 290 290 290 290 290 290 290 290 290 289 289 289 289 289 290 290 290 290 290 290 290 290 289 290 290 290 289 289 289 289 289
289 289 289 289 288 288 288 288 288 288 288 287 287 287 287 287 287 287 287 287 287 287 287 287 287 287 287 287 287 288 288 288 288 288 288 288 288 289 289 289 289 289 289 289 289 289 289 289 289 289 289 289 289 290 290 290 290 290 290 290 290 289 289 289 289 289 289 289 289 289 290 290 290 290 290 290 290 290 290 290 289 289 289 289 288 288
289 289 288 288 288 288 288 288 288 288 287 287 287 287 287 287 287 287 287 287 287 287 287 287 287 287 287 287 287 287 287 288 288 288 288 288 288 289 289 289 289 289 289 289 289 289 289 289 289 289 289 289 289 290 290 290 289 289 289 289 289 289 289 289 289 289 289 289 289 289 289 290 290 290 290 290 290 289 289 289 289 288 288 288 288 288
289 288 288 288 288 288 288 288 287 287 287 287 287 287 287 287 287 287 287 287 287 287 287 287 287 287 287 287 287 287 287 288 288 288 288 288 288 289 289 289 289 289 289 289 289 289 289 289 289 289 289 289 289 289 289 289 289 289 289 289 289 289 289 289 289 289 289 289 289 289 289 289 289 289 289 289 289 289 288 288 288 288 288 288 288 288
289 289 288 288 288 288 288 288 288 287 287 287 287 287 287 287 287 287 287 287 287 287 287 287 287 287 287 287 287 287 288 288 288 288 288 288 288 288 288 289 288 288 288 289 289 289 289 289 289 289 289 289 289 289 289 289 289 289 289 289 289 289 289 289 289 289 289 289 289 288 288 288 288 288 288 288 288 288 288 288 288 288 288 288 289 289
288 288 288 288 288 288 288 287 287 287 287 287 287 287 287 287 287 287 287 287 287 287 287 287 287 287 287 287 287 287 287 288 288 288 288 288 288 288 288 288 288 288 289 289 289 289 289 289 289 289 289 289 289 289 289 289 289 289 289 289 289 289 289 288 288 288 288 288 288 288 288 288 288 288 288 288 288 288 288 288 289 289 289 289 289 289
288 287 287 287 287 287 287 287 287 287 287 287 287 287 287 287 287 287 287 287 287 287 287 287 287 287 287 287 287 287 288 288 288 288 288 288 288 288 288 289 289 288 289 288 288 288 288 288 288 289 289 289 289 289 289 289 289 289 288 288 288 288 288 288 288 288 288 288 288 288 288 288 288 288 288 288 288 289 289 289 289 290 290 290 290 290
287 287 287 287 287 287 287 287 287 287 287 287 287 287 287 287 287 287 287 287 287 287 287 287 287 287 287 287 287 288 288 288 288 288 288 288 288 288 288 288 288 288 288 288 288 288 288 287 288 288 288 289 288 288 289 289 288 288 288 288 288 288 288 288 288 288 288 288 288 288 288 288 288 288 289 289 289 289 290 290 290 290 290 290 290 290
287 287 287 287 287 287 287 287 287 287 287 287 287 287 287 287 287 287 287 287 287 287 287 287 287 288 288 288 288 288 288 288 288 288 288 288 288 288 288 288 288 288 288 288 288 288 288 287 287 287 288 288 288 288 288 288 288 288 288 288 288 288 288 288 288 288 288 288 289 289 289 289 289 289 289 290 290 290 290 290 290 290 290 290 290 290
286 286 286 286 286 287 287 287 287 287 287 287 287 287 287 287 287 287 287 287 287 287 287 288 288 288 288 288 288 288 288 289 288 288 288 288 288 288 288 288 288 287 287 287 287 287 287 287 287 287 287 287 287 288 288 288 288 287 287 288 288 288 288 288 288 289 289 289 289 290 290 290 290 290 290 290 290 290 290 290 290 290 290 290 290 290
286 286 286 286 286 287 287 287 287 287 287 287 287 287 287 287 287 287 287 287 287 287 288 288 288 288 288 288 288 288 288 289 288 288 288 287 287 287 287 287 287 287 287 287 287 286 286 286 286 286 286 286 286 287 288 288 288 288 288 288 288 288 289 289 289 290 290 290 290 290 290 290 290 290 290 290 290 290 290 290 290 290 290 290 290 290
286 286 286 287 287 287 287 287 287 287 287 287 287 287 287 287 287 287 287 287 287 287 288 288 288 288 288 288 288 288 288 288 288 288 288 287 287 287 287 287 287 287 287 287 286 285 285 285 285 285 285 286 286 287 287 288 288 288 288 289 289 290 290 290 290 290 290 290 291 291 291 291 291 291 290 290 290 290 290 290 290 290 290 290 290 290
287 287 287 287 287 287 287 287 287 287 287 287 287 287 287 287 287 287 287 287 288 288 288 288 288 288 288 288 288 288 288 288 288 288 288 287 287 287 287 287 287 287 287 286 286 285 285 285 285 285 285 286 286 287 287 288 288 289 289 289 290 290 291 291 291 291 291 291 291 291 291 291 291 291 291 290 290 290 290 290 290 290 290 290 290 290
286 286 287 287 287 287 287 287 287 287 287 287 287 287 287 287 287 288 288 288 288 288 288 288 288 288 288 288 288 288 288 288 288 288 287 287 287 287 287 287 287 287 286 286 285 285 285 285 285 285 285 286 287 287 287 288 288 289 289 290 290 291 291 291 291 291 291 291 291 291 291 291 291 291 290 290 290 290 290 290 290 290 290 290 290 290
286 286 287 287 287 287 287 287 287 287 287 287 287 287 287 288 288 288 288 288 288 288 288 288 288 288 288 288 288 288 288 287 287 287 287 287 287 287 287 286 286 286 286 286 285 285 285 285 285 285 286 286 287 287 288 288 289 289 290 290 290 291 291 291 291 291 291 291 291 290 291 291 290 290 290 290 290 290 290 290 290 290 290 290 290 290
286 286 286 286 287 287 286 286 287 287 287 287 287 287 287 287 287 287 287 288 288 288 288 288 288 288 288 288 288 288 287 287 287 287 287 287 287 287 287 286 286 286 286 285 285 285 285 286 286 286 286 287 287 288 288 288 289 290 290 290 290 291 291 291 291 291 291 290 290 290 290 290 290 290 290 290 290 290 290 290 290 290 290 290 290 290
286 286 286 286 286 286 286 286 286 286 287 287 287 287 287 287 287 287 287 287 287 287 287 287 287 287 288 288 288 287 287 287 287 287 287 287 287 287 287 286 286 286 286 285 285 286 286 287 287 287 287 288 288 288 288 289 290 290 290 290 290 290 290 291 291 291 290 290 290 290 290 290 290 290 290 290 290 290 290 290 290 290 290 290 290 290
286 286 286 286 286 286 286 286 286 287 287 287 287 287 287 287 287 286 286 287 287 287 287 286 286 286 287 287 287 287 287 287 287 287 287 287 287 287 287 287 287 287 287 286 286 287 287 287 288 288 288 288 288 288 288 289 290 290 290 290 290 289 289 290 290 290 290 290 290 290 290 290 290 290 290 290 290 290 290 290 290 290 290 290 290 290
286 286 286 286 286 286 286 286 286 286 286 287 287 287 287 286 286 286 286 286 286 286 286 286 286 286 286 287 287 287 287 287 287 287 287 287 287 287 287 287 287 287 287 287 287 287 288 288 289 289 289 289 288 288 288 289 289 290 290 290 289 289 288 289 290 290 290 290 290 290 290 290 290 290 290 290 290 290 290 290 290 290 290 290 290 290
286 286 286 286 286 286 286 286 286 286 286 286 286 286 286 286 286 286 286 286 286 286 286 286 285 285 286 286 287 287 287 287 287 287 287 287 287 288 288 288 288 288 288 288 288 288 288 288 289 289 289 289 288 288 288 288 289 289 289 289 289 289 289 289 289 289 289 290 290 290 290 290 290 290 290 290 290 290 290 290 290 290 290 290 290 290
286 286 286 286 286 286 286 286 286 286 286 286 286 286 286 286 286 285 285 285 285 285 285 285 285 285 285 286 287 287 287 288 288 287 287 287 287 288 288 288 288 288 288 288 288 288 288 288 288 288 288 288 288 288 288 288 288 288 289 289 289 289 289 289 289 289 289 289 289 290 290 290 290 290 290 290 290 290 290 290 290 291 291 291 291 291
286 286 286 286 286 286 286 286 286 286 286 286 286 286 286 286 286 285 285 285 285 285 286 286 285 285 285 286 286 286 287 287 288 288 288 288 288 288 288 288 288 288 288 288 288 288 288 288 288 288 287 287 287 287 288 288 288 288 288 289 289 289 289 289 289 289 289 289 289 290 290 290 289 289 290 290 290 290 290 291 291 291 291 291 291 290
285 285 285 285 286 286 285 285 286 286 286 286 286 286 286 286 286 286 286 286 286 286 286 285 285 285 285 285 286 286 286 286 287 288 288 288 288 288 288 288 289 289 289 288 288 288 288 288 288 287 287 287 287 287 288 288 289 289 289 289 289 288 289 289 289 289 289 289 289 289 290 290 290 290 290 290 290 291 291 291 291 291 291 290 290 290
285 285 285 285 285 285 285 286 286 286 286 286 286 286 286 286 286 286 286 286 285 285 285 285 284 284 285 285 286 286 286 286 286 287 288 288 288 288 288 288 289 289 289 288 288 288 288 288 288 288 288 288 288 288 288 288 289 289 289 289 289 289 289 289 289 289 289 289 290 290 290 290 290 290 290 291 291 291 291 291 290 290 290 290 290 290
285 285 285 285 285 286 286 286 286 286 286 286 287 287 287 287 287 286 286 286 285 285 285 285 285 284 285 285 285 285 285 285 286 286 287 288 288 288 288 288 288 288 288 287 287 287 287 287 287 288 288 288 288 288 288 288 289 289 289 289 289 289 289 289 289 289 289 290 290 290 290 290 290 291 291 291 291 291 290 290 290 290 290 290 290 289
286 286 286 286 286 286 286 286 286 286 286 286 286 287 287 287 287 287 287 286 286 286 286 286 285 285 285 285 285 285 285 285 285 286 287 288 288 287 287 287 287 287 287 287 287 287 287 287 287 287 288 288 288 288 288 288 289 289 289 289 289 289 289 289 290 290 290 290 290 290 290 291 291 291 291 291 290 290 290 289 289 289 289 289 289 289
Wind_Speed
16 17 18 18 18 18 18 18 18 17 16 15 14 12 11 10 10 10 10 11 11 12 11 10 8 6 5 3 3 2 2 3 4 5 6 7 9 10 11 13 13 14 14 14 14 13 13 14 14 14 14 14 15 15 15 16 17 17 18 18 19 19 20 20 21 22 22 23 24 24 25 25 26 27 27 28 28 29 29 30 31 31 31 32 32 33
15 16 16 16 16 16 16 16 15 15 14 14 12 11 10 10 9 10 10 10 11 11 12 12 12 11 11 10 10 9 9 10 11 11 12 13 13 14 14 14 14 13 13 13 13 13 13 13 14 14 14 15 15 16 16 17 18 18 19 19 20 20 21 22 22 23 24 24 25 26 26 27 27 28 29 29 30 30 31 31 32 32 33 33 34 34
15 15 15 15 14 14 14 14 13 12 12 11 10 10 10 9 9 9 9 9 10 10 10 10 11 11 12 12 12 12 13 13 13 13 13 13 13 13 13 13 13 13 13 13 13 13 14 14 14 15 15 16 16 17 17 18 18 19 20 20 21 22 22 23 23 24 25 25 26 27 27 28 29 29 30 30 31 32 32 33 33 33 34 34 34 35
15 15 15 14 14 13 13 12 12 11 10 10 10 10 10 9 9 9 9 9 8 8 9 9 9 9 9 10 10 10 11 11 11 11 12 12 12 12 12 12 12 12 12 13 13 13 14 14 15 15 16 16 17 17 18 19 19 20 21 21 22 23 23 24 25 25 26 27 27 28 29 29 30 30 31 32 32 33 33 34 34 34 35 35 35 35
15 15 14 14 13 13 13 12 12 12 11 11 10 10 9 9 9 8 8 8 8 7 7 8 7 8 8 8 8 9 9 9 10 10 10 11 11 11 11 12 12 12 13 13 13 14 14 15 15 16 16 17 18 18 19 19 20 21 21 22 23 24 24 25 26 26 27 28 28 29 30 30 31 31 32 32 33 33 34 34 34 35 35 35 35 36
16 15 14 14 14 13 13 12 12 12 11 11 10 10 9 9 8 8 7 7 7 7 7 7 7 7 7 8 8 8 8 9 9 10 10 10 11 11 11 12 12 13 13 14 14 15 15 16 16 17 17 18 18 19 20 20 21 22 22 23 24 24 25 26 26 27 28 28 29 30 30 31 31 32 32 33 33 34 34 34 35 35 35 35 35 36
17 16 15 14 13 13 12 12 11 10 10 10 9 9 8 8 7 7 7 7 7 7 7 7 7 7 8 8 8 8 9 9 10 10 11 11 11 12 12 12 13 13 14 14 15 15 16 16 17 17 18 18 19 20 20 21 22 22 23 24 24 25 26 26 27 27 28 29 29 30 30 31 31 32 32 33 33 33 34 34 34 34 35 35 35 35
19 17 15 14 13 12 11 11 10 9 8 8 8 7 7 7 6 6 6 6 6 7 7 7 7 8 8 8 9 9 9 10 10 11 11 12 12 12 13 13 14 14 14 15 15 16 16 17 17 18 18 19 20 20 21 22 22 23 23 24 24 25 26 26 27 27 28 28 29 30 30 31 31 31 32 32 32 33 33 33 33 33 34 34 34 35
18 17 15 13 12 11 10 10 9 8 7 7 6 6 6 6 6 6 6 6 7 7 7 7 7 8 9 9 9 10 10 10 11 11 12 12 13 13 14 14 14 15 15 15 16 16 16 17 17 18 18 19 20 20 21 21 22 23 23 24 24 25 25 26 26 27 27 28 28 29 29 30 30 30 31 31 31 31 32 32 32 32 33 33 33 34
16 15 14 13 11 10 9 9 8 7 7 7 6 6 6 6 6 6 7 7 7 7 7 7 8 8 9 9 10 10 10 10 11 11 12 12 13 13 14 14 14 15 15 15 15 16 16 16 17 17 18 18 19 19 20 21 21 22 22 23 23 24 24 25 25 25 26 26 27 27 28 28 29 29 29 30 30 30 30 31 31 31 31 32 32 33
14 13 13 12 11 9 8 8 8 7 7 6 6 6 6 6 6 6 6 7 7 8 8 8 8 8 9 9 9 10 10 10 11 11 12 12 12 13 13 13 13 14 14 14 14 14 14 15 15 16 16 17 17 18 19 19 20 20 20 21 21 22 22 23 23 24 24 25 25 26 26 27 27 28 28 28 29 29 29 30 30 30 31 31 31 32
12 11 10 10 9 8 8 7 7 7 6 6 6 6 6 6 7 6 6 7 7 8 7 7 8 8 8 9 9 9 9 10 10 10 10 11 11 11 11 11 11 11 11 11 11 12 12 13 13 14 14 15 15 16 16 17 17 17 18 18 19 19 20 21 21 22 23 23 24 25 25 26 26 27 27 28 28 28 28 29 29 29 30 30 31 31
10 9 8 8 7 7 6 6 5 5 5 5 5 5 5 5 5 6 6 7 7 7 7 6 6 7 8 8 8 8 8 9 9 9 9 9 9 9 9 9 9 9 10 10 10 11 11 12 12 12 12 12 13 13 13 14 14 14 15 16 16 17 18 19 19 20 21 22 23 24 25 25 26 26 27 27 27 28 28 28 29 29 30 30 30 31
8 7 7 6 6 6 5 5 4 4 4 5 5 5 5 5 4 4 5 6 6 6 6 6 6 6 7 7 8 8 8 8 8 8 8 8 8 8 9 9 9 10 10 10 10 10 11 11 11 10 10 10 10 10 11 11 11 12 13 13 14 15 16 17 18 19 20 21 22 23 24 25 26 26 27 27 27 28 28 28 29 29 29 30 30 31
6 6 5 5 5 4 4 3 3 3 3 4 4 4 4 4 4 4 4 5 6 6 6 6 6 6 7 8 8 9 9 9 9 10 9 9 10 10 11 11 11 11 11 11 10 10 10 10 10 10 10 9 9 9 9 9 10 10 11 11 12 13 14 15 17 18 19 21 22 23 24 25 26 26 27 27 27 28 28 29 29 29 30 30 31 32
4 4 3 3 3 3 2 2 3 3 4 4 4 4 4 5 5 6 6 6 7 8 8 7 6 6 6 7 9 10 10 10 11 12 12 11 11 12 13 13 13 12 12 11 10 10 10 10 11 11 10 10 10 9 9 9 9 9 9 10 11 12 13 14 15 17 18 20 21 22 23 24 25 26 26 27 27 28 28 29 29 30 30 31 32 32
2 1 1 2 2 2 2 3 3 4 5 6 5 5 5 6 7 7 7 8 8 9 10 9 8 7 6 6 8 10 11 11 12 13 13 13 12 13 13 14 13 12 12 11 11 11 11 12 12 12 12 11 11 10 10 10 9 9 9 9 10 11 12 13 14 15 17 18 19 21 22 23 24 25 26 26 27 28 28 29 30 30 31 32 32 33
0 1 2 3 3 4 4 4 5 6 7 7 7 6 6 7 8 8 8 9 9 10 11 11 11 10 9 7 8 11 13 13 13 14 14 14 13 12 13 13 13 12 12 12 12 13 13 13 14 14 13 13 13 13 13 13 12 12 11 11 10 10 11 12 13 14 15 17 18 19 20 22 23 24 24 25 26 27 28 29 29 30 31 31 32 33
2 3 3 4 5 6 6 7 7 8 8 8 8 8 8 8 9 9 10 10 10 11 11 11 12 12 12 10 10 11 13 13 14 15 15 14 13 12 12 12 13 13 13 13 14 14 15 15 15 15 15 15 15 16 16 17 17 16 16 14 13 11 11 10 11 12 14 15 17 18 19 20 21 22 24 25 26 26 27 28 29 30 30 31 32 33
4 5 5 5 6 7 8 9 9 9 9 9 9 9 9 10 10 11 11 11 11 12 12 12 12 12 12 12 11 11 12 13 14 14 15 14 13 12 11 12 13 14 14 15 15 15 15 15 15 14 15 15 15 16 16 17 17 18 18 18 17 15 13 12 11 11 12 14 15 17 18 19 20 22 23 24 25 26 27 28 28 29 30 31 31 32
5 6 6 7 7 8 8 10 10 10 10 10 10 10 10 11 11 12 12 12 12 12 13 12 12 13 13 13 12 11 12 13 13 14 15 15 14 12 12 14 15 16 16 16 15 15 15 15 14 14 14 14 14 15 16 16 16 17 17 18 18 17 16 14 13 12 13 13 14 16 17 18 20 21 22 23 24 25 26 27 28 28 29 30 31 32
6 7 7 8 8 8 9 10 11 11 11 10 10 11 11 12 12 12 13 13 13 13 13 13 13 13 14 13 12 12 12 12 12 13 15 16 15 14 14 15 17 18 18 17 16 15 15 15 14 14 14 15 15 16 16 16 17 17 17 17 17 17 16 15 15 14 14 15 16 17 18 19 20 21 22 23 24 24 25 26 27 28 28 29 30 31
7 8 8 9 9 9 9 10 11 11 11 11 11 11 12 12 13 13 13 13 13 13 14 14 14 14 14 13 12 12 11 12 12 13 14 16 16 16 16 17 18 18 18 18 17 16 16 16 15 15 16 16 17 17 17 17 17 17 17 17 18 18 18 17 17 17 17 17 18 19 20 21 21 22 23 23 24 24 25 26 26 27 28 29 30 31
8 8 9 9 9 9 10 10 11 11 12 12 12 12 12 13 13 13 13 13 14 14 15 15 15 15 14 14 13 12 11 11 12 13 14 15 16 17 17 18 19 19 19 18 17 17 17 17 17 17 17 18 18 18 17 17 17 17 17 17 18 19 20 20 20 20 20 20 20 20 21 22 22 23 23 24 24 24 25 25 26 26 27 28 28 29
8 9 9 10 10 10 10 11 11 12 12 13 13 13 13 14 14 14 14 14 14 15 15 15 15 15 15 15 14 13 11 11 11 11 12 14 16 17 18 18 19 19 19 18 18 18 18 18 18 19 19 19 18 17 16 16 15 16 17 18 19 20 21 22 23 23 23 23 22 21 21 21 22 22 23 23 23 24 24 25 25 25 26 26 27 27
9 10 10 11 11 11 12 12 12 13 13 13 13 14 14 14 14 14 14 14 14 14 14 14 14 15 15 15 14 12 11 11 11 11 13 15 17 18 18 18 18 19 19 19 19 19 20 20 20 20 20 19 17 16 15 15 16 17 18 19 20 21 23 24 25 25 25 24 23 21 20 20 20 21 21 22 22 23 23 24 24 25 25 26 26 26
10 11 11 12 12 13 13 13 14 14 14 14 15 15 15 15 15 14 13 13 13 14 14 14 15 15 15 15 14 13 13 13 13 13 14 16 17 18 18 17 18 18 19 20 20 21 22 22 22 21 20 18 17 16 16 16 18 19 20 21 22 23 24 24 25 25 24 23 22 20 19 19 19 19 20 21 21 22 23 23 24 24 25 25 26 26
11 12 12 13 13 14 14 14 15 15 15 15 15 15 15 15 14 14 13 13 14 15 15 15 15 16 16 16 15 15 15 14 14 13 14 15 16 16 16 17 18 19 20 21 22 23 23 23 22 20 19 18 17 17 18 19 20 21 22 23 23 23 23 23 22 22 21 20 19 19 19 18 18 19 19 20 20 21 22 22 23 23 24 24 25 25
12 13 13 13 14 14 15 15 15 15 15 15 15 15 15 14 14 13 13 14 15 15 15 15 15 16 16 17 17 17 16 14 13 12 14 14 14 14 16 17 18 20 22 23 25 25 24 22 21 19 18 18 19 20 20 21 22 22 22 22 22 21 20 19 19 18 18 18 18 18 19 19 19 19 19 19 19 20 20 20 21 22 22 23 23 24
13 13 13 14 14 15 15 15 14 14 14 14 14 14 14 14 13 13 13 14 14 14 14 15 15 15 16 17 18 17 16 13 11 12 14 14 14 16 17 18 20 21 22 24 25 25 24 23 21 19 20 20 21 22 22 22 22 22 21 20 19 18 17 17 17 18 18 18 19 19 19 19 19 19 19 19 18 18 18 18 19 20 21 22 22 23
14 14 14 14 14 15 15 14 14 14 14 13 13 13 13 13 13 13 13 13 14 14 14 14 14 15 15 16 17 17 15 13 11 12 15 15 16 18 19 20 20 21 21 22 23 24 24 24 23 22 23 24 24 24 23 22 21 20 19 19 18 18 18 18 19 19 20 20 20 20 20 20 20 19 19 18 18 17 16 16 17 18 19 21 22 22
14 14 14 14 14 14 14 14 14 14 13 13 13 13 13 13 13 13 13 13 13 13 14 14 14 14 14 15 15 16 16 13 12 13 15 16 17 18 19 20 21 21 21 21 21 21 22 24 26 27 26 26 26 25 23 21 20 20 20 20 20 19 20 20 21 21 22 22 21 21 21 20 20 19 19 18 17 16 16 15 16 16 18 19 21 22
14 14 13 13 13 13 13 13 13 13 13 13 13 13 13 13 13 13 13 13 13 13 13 13 13 13 14 14 14 15 14 13 12 12 14 16 17 18 19 20 21 21 21 21 22 22 23 25 28 29 28 27 26 25 23 21 21 21 21 21 21 21 21 22 22 23 23 23 22 22 22 21 20 20 19 18 17 16 16 16 15 16 16 18 20 21
13 13 13 12 12 12 12 12 12 12 12 12 12 12 12 12 12 12 12 12 12 12 12 13 13 13 14 14 14 14 13 11 11 12 14 15 17 18 19 20 21 21 22 22 23 23 24 25 27 28 28 28 26 25 24 23 22 21 21 21 22 22 22 22 23 23 23 24 23 23 23 22 21 20 20 19 18 18 17 17 16 16 16 17 19 21
13 13 12 12 12 12 11 11 11 11 11 11 11 11 11 12 11 12 12 12 12 12 12 12 12 13 13 14 14 14 13 11 10 11 13 14 16 17 18 19 20 21 21 22 22 23 24 25 25 25 27 28 27 25 24 23 23 22 21 21 21 22 22 23 23 24 24 24 24 24 24 23 22 22 21 20 19 19 19 18 17 16 16 16 17 19
12 12 11 11 11 11 11 11 11 11 11 11 11 11 12 12 12 12 12 12 12 12 12 12 12 12 12 13 13 13 13 11 11 11 12 13 14 16 17 19 19 20 20 21 22 22 23 24 24 24 25 26 27 27 25 24 23 22 22 21 22 22 22 23 23 24 25 25 25 25 24 23 23 22 21 20 20 19 19 18 17 17 16 16 16 17
11 11 11 11 11 10 10 11 11 11 11 11 12 12 12 12 13 13 13 12 12 12 12 12 12 11 11 12 12 12 12 12 11 11 12 13 14 15 17 18 18 18 19 20 20 21 22 23 24 24 24 25 26 27 27 25 24 23 23 23 23 23 23 24 24 25 25 25 25 25 24 23 22 22 21 20 20 19 19 18 18 17 17 17 17 17
11 11 11 10 10 10 10 10 11 11 11 12 12 12 13 13 13 13 13 13 12 12 11 11 11 11 11 11 12 12 12 12 12 12 12 12 13 15 16 17 17 16 16 17 18 19 20 22 23 24 25 25 26 26 27 26 26 25 24 24 24 24 25 25 25 25 25 25 25 24 23 22 21 21 21 20 20 20 20 20 19 19 19 20 20 20
10 10 10 9 9 9 10 10 11 11 12 12 13 13 13 13 13 13 12 11 11 11 11 11 11 12 12 11 11 12 12 12 12 12 12 12 13 14 15 16 16 15 14 15 15 17 18 20 22 24 25 26 27 26 26 25 26 26 26 26 26 25 25 25 25 25 24 24 23 22 21 21 20 20 21 21 21 21 21 21 21 21 21 21 22 23
9 9 9 9 9 10 10 11 11 12 13 13 13 13 13 13 12 12 11 11 10 10 11 11 11 12 11 11 11 11 11 11 11 11 11 12 12 12 13 14 14 14 14 14 15 16 18 20 21 22 23 25 26 27 26 26 25 26 27 28 29 28 26 25 25 24 23 22 21 21 21 20 20 20 21 21 22 22 22 22 22 22 22 22 23 25
9 9 10 10 10 10 11 11 12 12 13 13 13 13 13 13 14 13 13 12 11 11 11 11 12 12 12 11 11 11 11 11 11 11 10 10 10 10 11 12 13 13 14 15 15 16 18 19 21 21 22 23 25 26 26 26 26 26 27 29 30 29 28 26 24 23 22 21 20 20 20 20 21 21 22 22 22 22 22 23 23 23 23 23 24 25
11 12 12 11 11 11 11 12 12 13 13 13 14 14 14 14 13 13 12 12 11 11 11 11 12 12 12 12 11 11 11 10 10 9 9 9 8 9 10 10 11 12 13 15 16 17 17 18 20 21 21 22 24 26 27 27 26 26 27 28 29 29 29 27 24 22 21 21 20 19 19 21 22 23 23 24 24 24 24 24 25 25 26 26 26 27
13 13 12 12 12 11 12 12 13 13 13 13 13 12 11 11 10 10 10 10 11 10 10 10 11 12 13 13 12 12 11 10 9 9 9 8 8 9 9 10 10 11 13 14 16 17 17 17 18 20 20 21 23 25 27 28 27 26 26 26 27 29 30 28 25 22 21 21 20 20 21 22 23 25 26 26 26 26 26 26 27 27 28 28 29 29
13 12 12 11 11 11 12 12 12 12 11 11 10 9 8 8 8 9 9 10 10 11 11 11 12 13 13 14 14 13 12 11 10 9 9 9 9 9 10 10 10 11 12 13 15 17 17 18 18 19 19 21 23 25 26 27 27 27 27 26 26 27 28 28 27 25 23 23 22 22 23 24 26 27 28 29 29 29 29 29 29 29 29 29 29 29
10 10 10 10 10 10 10 11 11 10 10 9 9 9 8 8 9 9 10 10 11 11 11 12 12 14 14 15 14 14 13 12 11 10 9 9 9 10 10 11 11 11 11 12 14 15 17 18 19 19 19 20 22 24 25 26 27 28 27 26 25 26 27 26 26 26 26 26 26 26 26 26 28 30 32 32 32 31 31 31 30 30 29 28 28 29
9 9 9 10 10 10 10 10 10 10 10 9 9 9 9 9 9 10 10 11 12 12 12 12 13 14 15 16 15 15 14 13 12 11 10 10 10 10 10 11 11 11 12 12 13 14 15 17 18 19 20 21 23 24 25 26 27 28 28 27 26 26 27 27 26 26 27 28 28 29 29 29 31 33 34 34 34 33 32 31 30 29 28 28 29 31
10 10 10 10 10 10 10 10 10 10 10 10 10 10 10 10 10 10 11 11 12 12 12 13 14 15 15 16 16 16 16 15 14 13 12 11 11 11 11 11 11 11 12 13 13 14 15 16 17 18 20 22 25 26 26 25 26 27 28 27 26 27 28 28 28 27 28 29 30 31 31 32 33 34 35 35 35 34 33 31 29 28 28 30 34 38
10 11 11 11 11 11 11 11 11 11 12 12 11 11 10 10 11 11 11 11 12 12 13 14 15 16 17 16 16 16 16 17 16 15 14 13 12 12 12 12 12 12 13 13 14 15 16 16 17 18 19 21 24 26 26 25 25 25 26 26 26 27 29 29 29 29 30 30 31 32 32 33 33 34 35 35 34 33 32 31 30 31 34 38 41 43
11 11 11 12 12 12 12 12 12 12 12 12 11 11 11 11 11 11 11 12 12 13 15 16 17 17 18 17 17 17 17 17 17 16 15 14 13 13 12 12 12 13 14 14 15 16 18 19 19 18 18 20 22 24 25 25 24 24 25 25 26 27 29 30 30 30 31 32 32 32 32 32 32 32 31 31 31 32 34 36 39 41 42 43 43 42
11 11 12 12 12 12 12 12 11 11 11 11 11 11 11 11 12 12 12 13 13 14 16 16 17 17 17 17 17 16 16 16 17 16 16 14 13 13 13 12 13 14 15 16 18 19 20 21 22 21 19 19 20 21 23 23 23 24 25 26 26 27 29 31 31 31 32 32 33 33 32 30 29 28 28 30 34 38 42 45 46 46 44 42 40 39
10 10 10 11 11 10 10 11 11 11 11 11 11 12 12 12 13 13 13 14 14 15 15 15 15 15 16 16 16 16 16 16 17 17 16 14 13 13 13 13 13 15 17 19 20 21 22 22 23 23 21 20 19 19 20 22 23 24 26 27 27 28 29 31 32 32 32 32 32 30 29 28 27 28 31 36 41 45 46 47 46 44 42 40 39 39
Wind_Direction
117 118 120 120 120 119 118 118 118 118 118 118 121 127 136 145 151 155 156 156 156 156 157 161 167 175 185 198 212 225 229 229 225 221 220 218 217 217 218 218 220 221 223 225 227 230 232 234 237 239 241 243 245 247 249 251 252 253 255 256 258 259 260 262 263 264 265 266 267 269 270 271 272 273 274 275 276 277 278 279 280 280 281 281 282 282
115 115 116 115 113 110 109 108 109 111 114 117 123 132 141 149 155 159 161 163 163 165 166 169 172 175 178 182 186 191 195 198 201 204 207 209 211 213 216 218 221 224 227 229 232 235 237 240 242 244 246 248 250 252 254 255 257 258 260 261 262 264 265 266 267 268 269 270 271 272 273 274 275 275 276 277 278 279 279 280 280 281 281 282 282 283
117 115 114 111 109 107 107 108 110 112 116 123 132 141 151 157 161 164 166 168 169 171 174 176 178 180 182 185 189 192 195 199 202 205 208 212 215 218 221 224 227 231 233 236 239 241 244 246 248 250 252 254 256 257 259 261 262 263 265 266 267 268 269 270 271 272 273 273 274 275 275 276 277 277 278 278 279 279 280 280 280 280 281 281 282 282
120 120 119 117 116 116 118 121 126 130 133 141 148 155 160 164 167 169 171 173 175 177 180 183 186 189 192 195 198 201 204 208 211 215 218 221 225 228 231 234 237 240 242 245 247 250 252 254 256 258 259 261 263 264 265 267 268 269 270 271 272 272 273 274 275 275 276 276 277 277 278 278 278 279 279 279 279 280 280 280 280 280 280 281 281 281
127 127 128 130 132 134 135 140 144 148 152 155 158 161 162 165 168 171 173 176 180 184 187 191 195 199 203 208 212 215 218 221 225 228 231 234 237 240 243 246 249 251 254 256 257 260 261 263 265 266 267 269 270 271 272 273 273 274 275 275 276 276 277 277 278 278 278 279 279 279 279 279 279 279 280 280 280 280 280 280 280 280 280 280 280 280
134 136 138 141 144 145 148 150 152 155 158 160 161 162 163 166 169 172 176 181 187 193 197 201 205 209 214 219 224 227 231 234 238 241 243 246 248 251 254 257 259 261 263 264 266 267 269 270 271 272 274 274 275 276 276 277 277 278 278 278 278 279 279 279 279 279 279 279 279 280 279 280 280 280 280 279 280 280 280 280 280 280 280 280 280 280
140 142 144 146 147 149 151 152 154 156 159 162 165 167 170 173 177 181 186 192 199 206 211 215 219 223 226 230 234 237 241 245 248 250 253 255 257 259 261 262 264 266 267 268 270 272 273 274 275 276 276 277 277 278 278 278 278 279 279 279 279 279 279 279 279 279 279 279 279 279 279 279 279 279 279 279 279 279 279 279 279 279 279 279 279 279
142 144 145 147 148 150 152 152 154 156 161 166 170 175 180 186 192 198 204 210 216 221 226 232 235 238 240 242 244 247 249 252 255 258 260 261 263 263 264 265 266 267 269 270 271 272 274 275 275 276 276 277 277 277 277 278 278 278 278 278 278 278 278 278 278 278 277 278 278 278 278 278 278 278 278 278 278 278 278 278 278 278 278 278 278 278
141 142 143 145 147 149 153 155 158 162 166 171 176 182 187 195 204 212 218 225 229 233 238 243 248 250 251 252 253 255 256 258 260 262 264 266 267 268 268 269 270 270 271 272 272 273 274 274 275 275 276 276 276 276 277 277 277 277 277 277 277 277 277 277 277 277 277 277 277 277 277 277 278 278 278 278 278 278 278 278 278 278 278 278 277 278
140 141 142 144 147 151 155 158 163 170 175 180 186 191 197 202 210 218 224 228 232 236 240 244 248 251 254 256 258 259 260 261 262 264 265 267 268 270 271 272 272 272 273 273 273 273 274 274 275 275 275 276 276 277 277 277 277 278 278 278 278 278 278 277 278 277 277 277 278 278 278 278 278 278 278 278 278 278 278 278 278 278 278 278 278 278
141 142 144 145 148 155 162 163 167 175 184 191 199 206 212 216 219 225 231 235 239 241 242 243 246 248 252 255 258 259 260 261 261 262 263 264 266 268 269 270 271 272 272 273 273 273 274 274 274 275 276 276 277 277 277 278 278 278 278 278 278 278 278 278 278 278 278 278 278 278 278 278 278 278 279 279 279 279 279 279 279 279 279 279 279 279
142 145 147 150 154 161 170 175 180 185 191 199 205 210 218 223 226 230 236 243 247 249 249 250 251 252 255 258 260 261 261 260 261 261 261 262 263 264 265 266 267 268 270 270 271 272 273 273 274 275 275 276 276 277 277 277 277 277 277 277 278 278 278 279 279 279 279 279 279 279 279 279 279 280 280 280 281 281 281 281 282 282 282 282 282 282
146 149 152 156 162 169 177 183 187 193 201 208 211 212 215 224 231 235 240 246 251 254 256 260 264 266 265 265 266 267 266 264 264 263 264 266 267 267 268 269 269 270 270 271 272 273 274 274 275 275 276 277 277 277 277 278 278 278 279 279 280 280 281 281 282 282 282 282 282 282 282 282 282 283 283 283 284 284 284 284 285 285 285 285 285 285
149 154 160 166 173 182 190 196 201 206 211 220 226 231 236 244 251 254 255 258 262 266 270 277 287 291 287 285 284 282 282 281 279 278 281 284 286 286 286 285 285 284 283 284 285 284 283 282 282 282 281 281 280 280 280 280 280 281 282 283 284 285 286 286 286 286 286 286 286 286 286 286 286 286 287 287 287 287 287 287 287 287 287 287 288 288
151 157 168 177 185 193 202 212 222 229 235 241 250 260 270 279 284 288 288 290 292 294 299 305 309 311 310 309 307 304 304 304 303 302 303 305 306 305 303 301 300 299 298 299 299 298 295 294 294 293 291 289 287 286 285 285 285 286 287 288 289 290 291 291 290 290 289 289 289 289 289 289 289 289 290 290 290 290 290 290 290 290 289 290 290 290
149 159 175 190 202 209 221 240 255 265 270 274 281 291 300 306 307 308 309 310 309 309 312 315 320 323 322 316 312 310 311 310 309 308 309 312 313 312 311 308 308 308 308 308 309 308 306 305 304 302 300 298 296 294 292 291 291 291 292 293 294 294 293 292 291 290 290 289 289 289 289 289 290 290 290 291 291 291 291 291 291 291 291 291 291 291
138 161 204 240 247 251 258 270 277 282 286 290 295 302 307 310 310 311 311 309 309 309 311 312 317 323 324 315 307 305 306 307 307 306 307 310 312 312 311 310 311 312 312 313 315 315 314 313 312 311 310 309 308 306 305 304 302 301 300 299 298 297 296 294 292 291 290 289 288 288 288 289 289 289 289 290 290 290 290 290 290 290 290 290 290 291
230 259 272 274 274 276 280 282 283 286 289 295 301 306 307 307 306 306 307 306 307 308 309 309 311 313 316 315 306 303 305 306 305 305 305 307 310 312 311 311 312 313 315 317 320 321 321 320 320 321 322 322 322 322 321 319 318 315 312 309 305 301 298 295 292 290 288 287 286 286 286 286 287 287 287 287 288 288 288 288 288 288 288 289 289 289
286 283 280 278 280 284 287 288 289 291 294 300 305 309 310 308 305 304 304 303 304 305 307 309 309 308 310 310 307 305 306 307 306 304 304 306 310 313 313 313 314 315 317 321 324 326 326 326 327 328 329 329 329 328 326 325 324 322 320 318 314 310 304 298 292 288 284 283 282 281 281 282 283 283 284 284 284 285 285 285 285 286 286 286 287 287
292 288 282 282 285 288 291 293 295 297 299 302 305 306 307 306 304 303 303 303 303 303 303 306 307 307 306 307 309 309 308 308 307 306 305 307 311 316 317 316 316 317 320 324 328 329 328 327 328 328 328 327 325 323 322 320 319 318 318 317 316 315 312 308 300 292 285 281 279 278 278 278 279 280 281 281 282 282 283 283 284 285 285 285 285 286
292 288 284 285 287 289 292 295 297 298 300 302 303 303 303 302 301 301 301 302 303 304 305 306 306 305 304 308 313 315 311 311 311 310 309 309 312 317 321 319 318 319 322 326 329 328 325 323 322 322 321 319 317 316 315 314 313 312 311 311 311 311 312 311 307 302 295 289 285 283 281 281 281 281 282 282 282 283 284 284 285 286 286 286 286 287
285 284 284 285 288 290 292 294 296 298 299 300 301 300 300 299 299 300 301 302 303 305 306 306 304 302 304 307 312 315 314 314 315 315 314 313 315 319 322 321 320 320 322 325 326 324 319 316 315 316 316 315 314 314 314 313 311 310 309 308 308 308 309 310 309 307 304 300 297 295 292 291 290 289 288 287 287 287 287 287 287 287 288 288 288 289
280 282 283 286 288 290 292 293 294 295 295 296 296 296 296 296 297 298 300 302 303 304 304 302 301 301 304 308 313 315 316 317 318 318 317 314 316 319 321 320 319 318 318 320 320 317 313 312 312 314 315 315 316 316 315 314 313 311 309 308 308 309 310 311 311 311 309 307 305 302 301 299 297 296 294 293 292 291 290 290 289 289 290 290 290 291
277 280 283 286 289 290 290 291 292 292 293 293 294 294 294 294 295 297 299 301 304 304 303 302 302 304 307 311 314 317 320 321 321 319 315 311 311 314 316 316 314 312 312 314 314 312 310 310 312 314 316 317 318 317 316 314 311 308 307 306 306 307 309 311 313 314 314 312 309 306 303 301 300 298 297 296 294 294 293 293 292 292 293 293 294 294
276 279 282 285 286 287 287 288 288 290 291 293 294 295 296 297 298 300 302 305 306 305 303 302 302 305 308 311 312 314 317 317 314 310 305 302 302 304 307 309 308 307 307 309 310 310 308 308 311 314 317 317 317 315 311 307 304 303 303 303 304 306 308 311 313 315 315 314 311 308 304 301 299 297 296 295 295 295 295 296 296 297 298 298 298 298
277 279 281 282 284 285 286 286 288 289 290 293 294 295 297 298 300 302 304 305 304 302 299 297 298 301 304 305 305 306 308 307 304 300 297 294 293 295 300 305 306 305 304 305 307 308 307 307 309 313 315 315 314 309 305 302 302 303 305 306 308 309 310 311 312 313 313 312 311 308 304 301 298 296 295 295 296 297 299 300 302 303 304 304 304 302
282 282 282 283 284 285 286 287 288 289 291 293 294 295 296 297 298 299 300 300 299 296 293 294 297 300 302 300 299 299 301 303 303 301 299 296 294 295 300 304 305 303 301 302 304 306 306 307 310 313 315 314 311 307 305 306 308 310 310 311 311 311 311 311 311 310 310 309 308 307 306 303 301 299 298 299 300 302 303 306 307 309 309 309 308 306
285 284 284 284 285 285 286 287 288 289 291 293 294 295 296 297 298 300 301 300 298 296 296 298 300 302 300 299 298 299 302 306 310 308 303 299 296 296 300 304 303 301 299 300 303 306 306 308 311 314 315 312 310 309 310 311 313 313 313 312 312 311 311 310 310 310 309 309 309 310 310 309 308 307 306 306 307 308 309 311 312 313 312 311 309 308
286 285 284 284 284 285 285 286 288 290 291 293 294 295 296 298 299 300 300 299 298 298 299 301 302 302 301 300 300 301 304 310 313 309 302 298 295 295 298 300 300 299 300 302 304 306 308 310 313 314 313 311 310 312 313 315 315 315 314 313 313 313 313 314 314 314 315 316 317 318 318 318 318 317 316 316 315 315 315 316 315 314 312 310 309 308
289 288 287 287 286 287 287 288 290 292 293 295 295 297 298 299 300 300 299 298 298 299 300 301 301 301 301 301 301 301 304 311 311 304 299 295 292 292 295 296 297 299 302 306 309 310 310 311 312 312 311 309 310 313 315 317 317 317 317 318 318 320 322 323 324 324 324 326 326 327 327 327 326 326 325 324 322 321 319 318 316 314 311 310 308 308
292 292 292 291 291 291 292 294 295 296 296 297 297 298 299 299 299 299 299 298 298 298 299 299 299 298 298 298 298 298 301 306 305 300 296 292 291 292 294 296 297 299 303 307 311 313 312 311 310 309 309 309 310 313 317 319 321 322 324 325 327 330 332 333 333 332 332 333 333 333 332 332 330 329 328 327 325 323 320 317 315 312 310 309 309 309
290 290 291 291 291 293 294 295 296 296 296 296 297 297 298 298 298 298 298 298 297 297 297 297 297 296 296 295 294 295 298 303 304 299 295 293 292 293 295 296 297 299 302 304 306 307 307 306 306 307 308 309 311 314 319 323 326 328 330 331 333 335 338 338 337 336 335 335 334 334 333 332 330 328 326 324 323 321 319 317 314 312 311 310 310 310
287 288 289 289 289 290 290 291 291 291 291 291 291 292 293 294 296 297 297 297 296 296 296 296 295 295 293 292 292 293 298 303 304 300 295 294 293 294 295 295 296 297 299 300 299 299 299 300 302 305 307 309 312 316 321 326 330 332 333 333 334 335 338 338 336 334 333 332 332 332 332 330 328 327 325 323 322 321 320 318 317 315 313 311 310 309
286 287 288 288 287 286 284 284 283 282 282 283 284 285 287 289 292 294 295 295 294 294 293 292 292 292 291 291 291 293 297 302 302 298 293 292 292 292 293 293 294 295 297 298 298 297 297 298 301 304 307 310 314 318 323 327 330 332 333 333 332 331 332 333 332 330 329 328 328 329 330 329 328 326 325 324 322 322 321 321 320 318 315 312 309 308
283 285 286 285 284 282 280 278 277 277 277 278 279 282 285 288 290 292 293 293 292 291 290 289 288 287 287 288 290 292 296 299 296 290 287 287 288 289 290 290 292 294 296 297 299 300 301 301 302 304 306 309 313 318 323 327 329 330 331 331 329 328 328 329 328 326 326 326 326 327 328 327 326 324 323 323 322 322 321 321 320 318 316 311 308 307
282 283 284 283 282 282 282 282 282 283 285 287 288 289 291 293 294 294 293 292 290 289 287 286 284 284 283 284 286 289 292 293 289 284 282 283 285 287 288 289 291 294 296 298 299 301 301 302 303 304 305 306 309 315 323 327 328 328 328 329 328 327 327 328 327 326 325 324 325 325 325 325 323 322 322 322 322 321 320 320 319 318 315 311 308 306
287 287 286 285 286 287 289 290 292 294 296 298 297 295 296 296 295 294 292 290 288 286 284 283 283 282 282 283 284 286 288 288 286 283 282 283 285 287 288 290 292 294 295 297 298 299 300 302 303 304 304 303 305 310 319 324 326 327 328 329 328 327 327 327 327 325 324 324 324 324 324 323 322 321 321 322 322 322 321 320 320 318 315 312 309 307
295 293 292 292 293 294 294 294 294 296 298 297 295 292 292 291 289 288 286 285 284 283 283 283 282 282 281 281 283 285 286 287 288 288 288 288 289 289 289 290 291 293 293 295 297 299 299 300 300 301 302 303 306 311 317 321 325 327 327 326 325 324 325 325 325 324 323 323 323 322 322 322 322 321 322 323 324 323 322 322 321 319 316 314 311 309
302 300 299 298 296 293 290 289 290 291 290 288 287 287 288 287 286 285 284 284 283 283 283 283 283 283 283 284 286 287 289 292 293 294 294 292 290 290 289 290 292 294 297 298 300 299 298 296 296 297 299 303 308 313 317 320 322 324 323 322 320 320 322 322 322 322 322 323 323 323 323 323 323 323 324 325 326 325 324 323 321 319 317 314 312 310
299 296 293 291 289 288 286 286 286 285 285 286 288 290 291 291 290 290 290 289 288 287 286 285 285 285 287 288 290 292 294 297 298 297 296 294 291 290 290 293 296 301 305 306 304 301 297 295 296 298 301 304 308 311 314 317 319 321 321 319 319 319 320 319 320 321 322 323 324 325 325 325 325 325 326 326 325 324 323 321 319 318 316 314 312 312
286 280 276 280 284 284 283 283 284 285 286 289 291 293 295 295 295 295 295 294 293 291 290 289 288 289 290 292 294 295 297 299 300 300 299 297 297 296 297 298 301 305 308 306 303 300 298 297 298 301 306 308 310 310 311 314 316 317 318 317 316 316 317 317 319 322 323 324 325 326 326 326 326 326 326 324 323 321 321 320 318 318 317 316 314 313
275 271 273 277 279 278 278 280 282 285 287 289 290 292 293 294 294 293 295 295 295 294 292 290 290 291 292 292 294 297 300 303 305 306 307 307 308 306 305 304 304 305 306 303 300 300 301 302 304 305 309 311 311 309 310 311 313 314 315 315 315 315 315 316 319 323 324 324 324 326 326 326 326 326 324 322 321 321 321 320 319 319 318 318 317 315
274 274 276 276 275 274 276 278 281 283 286 289 290 293 294 294 294 295 297 298 298 298 298 296 295 295 295 297 300 304 307 310 313 315 315 316 315 313 311 309 308 307 305 302 300 302 306 306 307 308 311 312 311 308 308 309 311 312 313 313 315 314 313 315 319 323 323 323 324 326 328 328 326 324 322 321 321 321 322 321 320 320 319 318 317 314
274 277 278 277 276 276 278 281 285 291 295 297 299 301 304 302 301 302 302 301 301 302 303 302 300 299 299 301 305 310 312 314 315 317 316 315 315 314 313 311 310 308 306 304 303 305 308 308 308 309 310 311 309 307 306 307 309 311 312 313 313 311 308 311 317 322 323 324 326 328 330 329 326 323 321 320 320 321 320 319 318 317 317 317 315 311
280 283 284 283 283 283 283 286 292 299 303 305 307 310 312 307 303 303 303 303 304 305 306 305 304 301 299 301 305 309 311 313 313 313 312 311 310 311 311 311 311 309 308 307 307 307 307 308 309 310 310 309 307 306 304 305 307 310 312 313 313 310 309 312 317 320 321 323 326 329 330 329 326 322 319 319 319 319 317 316 314 313 313 312 310 307
295 294 293 293 293 292 293 296 300 303 304 306 306 307 308 305 303 302 302 301 300 301 302 303 301 298 297 300 304 309 311 313 313 312 310 308 307 308 309 310 310 309 307 306 305 305 305 305 307 309 310 308 306 305 304 305 306 307 310 312 312 311 311 313 316 318 320 321 324 327 329 328 324 319 316 315 315 314 313 311 310 309 308 307 306 304
301 299 298 298 298 299 301 303 304 303 301 301 301 302 302 301 300 299 298 297 297 298 300 301 299 297 297 300 304 308 310 312 313 313 310 309 308 308 308 309 308 306 304 302 302 302 303 305 307 308 308 305 302 301 303 305 306 306 308 310 311 311 310 311 314 318 320 321 322 324 325 323 319 315 313 312 310 309 307 306 305 304 304 304 304 304
295 294 294 295 295 295 296 297 296 295 293 294 296 297 298 298 298 297 298 299 302 304 304 302 300 300 300 302 305 307 308 308 309 310 309 308 309 309 309 307 305 303 302 302 303 304 306 307 307 307 305 301 298 298 301 305 308 308 309 309 308 307 308 311 314 318 319 318 319 320 319 316 313 310 309 307 305 303 302 301 301 301 302 303 303 304
285 283 283 284 284 284 286 289 290 291 292 295 296 297 298 298 298 299 300 301 302 300 298 295 295 296 297 299 302 304 304 305 306 306 306 307 308 309 308 307 306 306 307 308 309 311 312 311 309 308 306 303 299 297 300 304 308 311 310 308 306 306 307 310 313 315 316 315 315 314 313 310 308 306 303 301 299 299 300 300 300 300 301 302 303 304
277 277 279 279 280 282 286 289 292 294 296 297 298 299 299 298 297 295 295 294 291 286 282 283 287 291 293 295 298 301 302 303 304 304 306 307 307 308 309 310 313 316 319 318 318 318 316 312 309 308 308 307 304 300 299 302 307 311 310 307 306 306 306 308 310 312 312 310 309 308 307 305 302 300 298 298 299 300 300 300 300 301 302 303 303 304
281 282 285 286 287 290 293 295 296 297 298 299 299 299 298 297 295 294 292 290 288 286 286 288 292 295 297 300 302 305 307 306 305 305 308 309 310 311 313 317 321 324 323 319 316 314 310 307 304 303 304 306 307 305 301 302 304 306 304 305 306 306 305 305 306 307 306 305 303 302 300 298 297 297 298 300 301 301 301 301 301 302 303 304 305 304